ONEWEB-0203, 48235

Orbit data source: Space-Track

ONEWEB-0203, 48235 is a payload satellite owned by One Web (NAA) (UK) in LEO that was launched on Sun, 25 Apr 2021 UTC via a SOYUZ-2-1B launch vehicle from the Vostochny Cosmodrome (VOSTO). Payload-class satellites include a variety of spacecraft equipped with specific instruments for various scientific and technological missions. These include communications satellites like Starlink; space stations such as the ISS; scientific satellites like the Hubble; Earth observation satellites from companies like Planet Labs, Umbra, and HawkEye 360; GPS; miniature CubeSats for education and research; and military/defense satellites.

Loading next visibility...
Identifier
48235, 2021-031AB
Orbit
LEO
Country
Flag of UKUK
Related business
Manufacturer
One Web
Mission
Operational Commercial Communications
Bus & Motor
ARROW, Unknown motor
Mass
148 kg wet, ~140 kg dry
Launch date (UTC)
2021-04-25 (5 years ago)
Launch vehicle
SOYUZ-2-1B
Launch site
Vostochny Cosmodrome (VOSTO)
Object type
Payload
Rocket body
Debris
Shape & HBR
Trap Box + 2 Pan, 6.7 m
Radar Cross Section
3.464 m², Large (>1 m²)

Expand to show TLE details & history
Last TLE update: 8 hours ago

TLE from 8 hours ago
0 ONEWEB-0203
1 48235U 21031AB  26095.10273881  .00000273  00000-0  70085-3 0  9996
2 48235  87.8951 304.2819 0001865  86.7687 273.3656 13.14502102238678
Epoch: 2026-04-05T02:27Z
TLE epoch observation values (Epoch: 2026-04-05T02:27:56.633Z)
Latitude
-0.00001°
Longitude
73.88295°
Altitude
1,208.604 km
Speed
7.25 km/s
True Right ascension
20h 17m 07s
True Declination
0° 00' 00"
Sunlit
Object was in daylight at epoch
Visualization orbit readout
Latitude
Unknown
Longitude
Unknown
Altitude
Unknown
Speed
Unknown
Apparent Right ascension
Unknown
Apparent Declination
Unknown
Sunlit
N/A
Visualization observer readout
Local Sidereal Time
16:37:02
Azimuth
Unknown
Elevation
Unknown
Doppler factor
Unknown
Orbital elements
Apogee altitude
1,204.321 km
Perigee altitude
1,201.493 km
Semi-major axis
7,581.044 km
Eccentricity
0.00019
Inclination
87.8951°
RAAN
304.2819°
Arg. of periapsis
86.7687°
True anomaly
273.34427°
Mean anomaly
273.3656°
Eccentric anomaly
273.35493°
Mean motion
3.28814 °/min
Orbital period
109.48 mins
BSTAR
0.00070085
Loading maneuver chart data...
Computing Atmospheric mass density...
Loading historical data...
Loading historical data...
Loading historical data...
Loading historical data...
Loading historical data...
Loading historical data...
Loading historical data...

Documentation

Showing up to 5 results
|